Change the Weather History Date:

Sunday, January 26, 2014

  Actual Average Record
Temperature  
Mean Temperature 16 °F -  
Max Temperature 23 °F 25 °F 48 °F (2002)
Min Temperature 8 °F 7 °F -11 °F (2009)
Degree Days  
Heating Degree Days 50    
Moisture  
Dew Point -1 °F    
Average Humidity 51    
Maximum Humidity 86    
Minimum Humidity 32    
Precipitation  
Precipitation 0.00 in - - ()
Sea Level Pressure  
Sea Level Pressure 29.58 in    
Wind  
Wind Speed 8 mph (WSW)    
Max Wind Speed 18 mph    
Max Gust Speed 28 mph    
Visibility 10 miles    
Events      
Averages and records for this station are not official NWS values.
T = Trace of Precipitation, MM = Missing Value Source: NWS Daily Summary

Daily Weather History Graph

Daily Weather History Graph

Search for Another Location

Airport or City:

Trip Planner

Search our weather history database for the weather conditions in past years. The results will help you decide how hot, cold, wet, or windy it might be!

Date:

Astronomy

Jan. 26, 2014 Rise Set
Actual Time 7:04 AM EST 4:43 PM EST
Civil Twilight 6:33 AM EST 5:14 PM EST
Nautical Twilight 5:58 AM EST 5:49 PM EST
Astronomical Twilight 5:24 AM EST 6:23 PM EST
Moon 2:39 AM EST (1/26) 12:28 PM EST (1/26)
Length of Visible Light 10h 40m
Length of Day
9h 38m
Waning Crescent, 24% of the Moon is Illuminated
Jan 26
Waning Crescent
Jan 30
New
Feb 6
First Quarter
Feb 14
Full
Feb 22
Last Quarter

Hourly Weather History & Observations

Time (EST) Temp. Windchill Dew Point Humidity Pressure Visibility Wind Dir Wind Speed Gust Speed Precip Events Conditions
12:15 AM 23.0 °F 17.0 °F 17.6 °F 80% 29.21 in 10.0 mi WSW 4.6 mph - N/A   Scattered Clouds
12:35 AM 23.0 °F 17.0 °F 17.6 °F 80% 29.21 in 10.0 mi SW 4.6 mph - N/A   Overcast
12:55 AM 23.0 °F 17.0 °F 17.6 °F 80% 29.20 in 10.0 mi WSW 4.6 mph - N/A   Overcast
1:15 AM 21.2 °F 14.9 °F 17.6 °F 86% 29.20 in 10.0 mi West 4.6 mph - N/A   Mostly Cloudy
1:35 AM 21.2 °F 13.6 °F 17.6 °F 86% 29.21 in 10.0 mi WSW 5.8 mph - N/A   Mostly Cloudy
1:55 AM 21.2 °F 10.9 °F 17.6 °F 86% 29.21 in 10.0 mi WSW 9.2 mph - N/A   Overcast
2:15 AM 21.2 °F 11.7 °F 17.6 °F 86% 29.21 in 10.0 mi WSW 8.1 mph - N/A   Overcast
2:35 AM 21.2 °F 13.6 °F 15.8 °F 80% 29.23 in 10.0 mi WSW 5.8 mph - N/A   Overcast
2:55 AM 21.2 °F 12.6 °F 15.8 °F 80% 29.24 in 10.0 mi WSW 6.9 mph - N/A   Overcast
3:15 AM 21.2 °F 16.4 °F 15.8 °F 80% 29.25 in 10.0 mi WSW 3.5 mph - N/A   Mostly Cloudy
3:35 AM 21.2 °F - 15.8 °F 80% 29.26 in 10.0 mi Calm Calm - N/A   Overcast
3:55 AM 21.2 °F - 15.8 °F 80% 29.27 in 10.0 mi Calm Calm - N/A   Overcast
4:15 AM 21.2 °F 11.7 °F 15.8 °F 80% 29.29 in 10.0 mi WSW 8.1 mph - N/A   Overcast
4:35 AM 21.2 °F 11.7 °F 12.2 °F 68% 29.30 in 10.0 mi West 8.1 mph - N/A   Mostly Cloudy
4:55 AM 21.2 °F 11.7 °F 12.2 °F 68% 29.31 in 10.0 mi WSW 8.1 mph - N/A   Clear
5:15 AM 21.2 °F 10.9 °F 12.2 °F 68% 29.32 in 10.0 mi WSW 9.2 mph - N/A   Clear
5:35 AM 21.2 °F 11.7 °F 10.4 °F 63% 29.33 in 10.0 mi West 8.1 mph - N/A   Scattered Clouds
5:55 AM 21.2 °F 10.1 °F 8.6 °F 58% 29.36 in 10.0 mi WNW 10.4 mph 19.6 mph N/A   Overcast
6:15 AM 17.6 °F 2.2 °F 6.8 °F 63% 29.38 in 10.0 mi NW 17.3 mph 21.9 mph N/A   Overcast
6:35 AM 15.8 °F 2.1 °F 3.2 °F 58% 29.41 in 10.0 mi WNW 12.7 mph - N/A   Mostly Cloudy
6:55 AM 14.0 °F -3.0 °F 1.4 °F 57% 29.44 in 10.0 mi NNW 18.4 mph 24.2 mph N/A   Mostly Cloudy
7:15 AM 12.2 °F -2.5 °F -2.2 °F 53% 29.46 in 10.0 mi NW 12.7 mph 21.9 mph N/A   Mostly Cloudy
7:35 AM 10.4 °F -6.0 °F -2.2 °F 57% 29.48 in 10.0 mi NW 15.0 mph 20.7 mph N/A   Partly Cloudy
7:55 AM 8.6 °F -6.3 °F -4.0 °F 57% 29.49 in 10.0 mi NW 11.5 mph - N/A   Clear
8:15 AM 8.6 °F -6.3 °F -7.6 °F 48% 29.51 in 10.0 mi NW 11.5 mph 20.7 mph N/A   Clear
8:35 AM 8.6 °F -7.0 °F -9.4 °F 44% 29.53 in 10.0 mi NW 12.7 mph 17.3 mph N/A   Clear
8:55 AM 8.6 °F -6.3 °F -9.4 °F 44% 29.54 in 10.0 mi NW 11.5 mph - N/A   Clear
9:15 AM 8.6 °F -9.5 °F -9.4 °F 44% 29.55 in 10.0 mi NW 17.3 mph 24.2 mph N/A   Clear
9:35 AM 8.6 °F -7.0 °F -11.2 °F 40% 29.57 in 10.0 mi NW 12.7 mph 20.7 mph N/A   Clear
9:55 AM 8.6 °F -7.7 °F -11.2 °F 40% 29.58 in 10.0 mi NNW 13.8 mph 21.9 mph N/A   Clear
10:15 AM 8.6 °F -7.7 °F -11.2 °F 40% 29.60 in 10.0 mi NNW 13.8 mph 17.3 mph N/A   Clear
10:35 AM 8.6 °F -7.7 °F -11.2 °F 40% 29.61 in 10.0 mi NW 13.8 mph 18.4 mph N/A   Clear
10:55 AM 10.4 °F -4.1 °F -11.2 °F 37% 29.61 in 10.0 mi NNW 11.5 mph 19.6 mph N/A   Clear
11:15 AM 10.4 °F -0.4 °F -11.2 °F 37% 29.62 in 10.0 mi WNW 6.9 mph - N/A   Clear
11:35 AM 10.4 °F 4.0 °F -11.2 °F 37% 29.62 in 10.0 mi NW 3.5 mph - N/A   Clear
11:55 AM 12.2 °F - -9.4 °F 38% 29.63 in 10.0 mi Calm Calm - N/A   Clear
12:15 PM 12.2 °F -3.1 °F -11.2 °F 34% 29.63 in 10.0 mi WSW 13.8 mph 19.6 mph N/A   Clear
12:35 PM 14.0 °F -2.0 °F -9.4 °F 35% 29.63 in 9.0 mi West 16.1 mph 26.5 mph N/A   Clear
12:55 PM 14.0 °F -1.4 °F -9.4 °F 35% 29.65 in 8.0 mi WNW 15.0 mph 27.6 mph N/A   Clear
1:15 PM 14.0 °F -0.8 °F -9.4 °F 35% 29.65 in 10.0 mi WNW 13.8 mph 27.6 mph N/A   Clear
1:35 PM 15.8 °F 0.9 °F -9.4 °F 32% 29.65 in 10.0 mi West 15.0 mph 21.9 mph N/A   Clear
1:55 PM 15.8 °F 2.1 °F -9.4 °F 32% 29.67 in 10.0 mi West 12.7 mph 26.5 mph N/A   Clear
2:15 PM 15.8 °F 4.2 °F -9.4 °F 32% 29.68 in 10.0 mi West 9.2 mph - N/A   Clear
2:35 PM 15.8 °F 2.7 °F -9.4 °F 32% 29.69 in 10.0 mi West 11.5 mph 16.1 mph N/A   Clear
2:55 PM 15.8 °F 5.1 °F -9.4 °F 32% 29.69 in 10.0 mi WSW 8.1 mph 17.3 mph N/A   Clear
3:15 PM 15.8 °F 7.2 °F -9.4 °F 32% 29.69 in 10.0 mi West 5.8 mph - N/A   Clear
3:35 PM 15.8 °F 6.1 °F -9.4 °F 32% 29.70 in 10.0 mi West 6.9 mph - N/A   Clear
3:55 PM 15.8 °F 3.4 °F -9.4 °F 32% 29.72 in 10.0 mi WSW 10.4 mph 16.1 mph N/A   Clear
4:15 PM 15.8 °F 7.2 °F -9.4 °F 32% 29.74 in 10.0 mi West 5.8 mph - N/A   Clear
4:35 PM 15.8 °F 8.6 °F -9.4 °F 32% 29.74 in 10.0 mi West 4.6 mph - N/A   Partly Cloudy
4:55 PM 15.8 °F 10.2 °F -7.6 °F 35% 29.76 in 10.0 mi South 3.5 mph - N/A   Mostly Cloudy
5:15 PM 15.8 °F 7.2 °F -7.6 °F 35% 29.77 in 10.0 mi South 5.8 mph - N/A   Overcast
5:35 PM 15.8 °F 8.6 °F -7.6 °F 35% 29.77 in 10.0 mi SSW 4.6 mph - N/A   Overcast
5:55 PM 15.8 °F 7.2 °F -5.8 °F 38% 29.79 in 10.0 mi SSW 5.8 mph - N/A   Overcast
6:15 PM 15.8 °F 10.2 °F -5.8 °F 38% 29.81 in 10.0 mi SW 3.5 mph - N/A   Overcast
6:35 PM 15.8 °F 8.6 °F -5.8 °F 38% 29.81 in 10.0 mi South 4.6 mph - N/A   Mostly Cloudy
6:55 PM 14.0 °F 5.1 °F -5.8 °F 41% 29.80 in 10.0 mi South 5.8 mph - N/A   Partly Cloudy
7:15 PM 14.0 °F 6.5 °F -7.6 °F 38% 29.80 in 10.0 mi SSE 4.6 mph - N/A   Partly Cloudy
7:35 PM 12.2 °F 2.9 °F -5.8 °F 45% 29.81 in 10.0 mi South 5.8 mph - N/A   Clear
7:55 PM 12.2 °F 4.3 °F -5.8 °F 45% 29.81 in 10.0 mi SSE 4.6 mph - N/A   Scattered Clouds
8:15 PM 12.2 °F 1.7 °F -5.8 °F 45% 29.82 in 10.0 mi South 6.9 mph - N/A   Overcast
8:35 PM 12.2 °F 4.3 °F -4.0 °F 48% 29.82 in 10.0 mi South 4.6 mph - N/A   Overcast
8:55 PM 12.2 °F 2.9 °F -4.0 °F 48% 29.83 in 10.0 mi SSE 5.8 mph - N/A   Overcast
9:15 PM 12.2 °F 6.1 °F -2.2 °F 53% 29.84 in 10.0 mi South 3.5 mph - N/A   Overcast
9:35 PM 12.2 °F 6.1 °F -2.2 °F 53% 29.83 in 10.0 mi South 3.5 mph - N/A   Overcast
9:55 PM 12.2 °F 6.1 °F -2.2 °F 53% 29.84 in 10.0 mi South 3.5 mph - N/A   Overcast
10:15 PM 12.2 °F 4.3 °F -2.2 °F 53% 29.84 in 10.0 mi South 4.6 mph - N/A   Overcast
10:35 PM 12.2 °F 4.3 °F -0.4 °F 57% 29.84 in 10.0 mi South 4.6 mph - N/A   Overcast
10:55 PM 14.0 °F 6.5 °F -0.4 °F 53% 29.84 in 10.0 mi South 4.6 mph - N/A   Overcast
11:15 PM 15.8 °F 6.1 °F -0.4 °F 49% 29.83 in 10.0 mi SSE 6.9 mph - N/A   Overcast
11:35 PM 15.8 °F 8.6 °F -0.4 °F 49% 29.84 in 10.0 mi SSE 4.6 mph - N/A   Overcast
11:55 PM 15.8 °F 7.2 °F -0.4 °F 49% 29.83 in 10.0 mi SSE 5.8 mph - N/A   Overcast